Temperature
10 10 10 10 10 10 10 10 9 9 8 9 9 9 9 9 9 9 9 9 9 9 9 9 9 9 9 9 9 9 9 10 9 10 10 10 10 10
9 9 9 9 9 9 9 9 9 9 8 8 8 8 8 8 8 9 9 9 9 9 8 8 8 8 9 9 9 9 9 9 9 9 9 9 10 10
9 9 9 9 9 9 9 9 9 9 9 8 8 8 8 8 8 8 8 8 8 8 8 8 8 8 8 8 8 8 8 8 9 9 9 9 9 9
9 9 9 9 9 9 9 8 8 8 8 8 8 8 8 8 8 8 8 8 8 8 8 8 8 8 8 8 8 8 8 8 8 8 9 9 9 9
9 9 9 8 8 8 8 8 8 8 8 8 7 7 7 7 7 8 7 7 7 7 7 7 7 7 7 7 7 8 8 8 8 8 8 8 8 8
9 8 8 8 8 8 8 8 8 8 7 7 7 7 7 7 7 7 7 7 7 7 7 7 7 7 7 7 7 7 7 7 7 7 8 8 8 8
8 8 8 8 8 8 8 8 7 7 7 7 7 7 7 7 6 6 7 7 7 7 7 7 7 7 7 7 7 7 7 7 7 7 7 8 8 8
8 8 8 8 8 8 7 7 7 7 7 7 6 6 6 6 6 6 6 6 6 6 6 7 7 7 7 7 7 7 7 7 7 7 7 7 7 7
8 8 8 7 7 7 7 7 7 7 6 6 6 6 6 6 6 6 6 6 6 6 6 6 6 6 6 6 6 6 6 6 6 7 7 7 7 7
7 7 7 7 7 7 7 7 6 6 6 6 6 6 6 6 6 6 5 5 5 6 6 6 6 6 6 6 6 6 6 6 6 6 6 7 7 7
7 7 7 7 7 7 6 6 6 6 6 6 6 6 6 5 5 5 5 5 5 5 5 5 5 6 6 6 6 6 6 6 6 6 6 6 6 6
7 7 7 7 6 6 6 6 6 6 6 6 6 6 5 5 5 5 5 5 5 5 5 5 5 5 5 5 6 6 6 6 6 6 6 6 6 6
7 7 7 6 6 6 6 6 6 6 6 5 5 5 5 5 5 5 5 5 5 4 5 5 4 4 4 5 5 5 5 5 5 5 5 5 5 5
6 6 6 6 6 6 6 6 5 5 5 5 5 5 5 5 5 5 5 5 4 4 4 4 4 4 4 4 4 5 5 5 5 5 5 5 5 5
6 6 6 6 6 5 5 5 5 5 5 5 5 5 5 5 4 4 4 4 4 4 4 4 4 4 4 4 4 4 4 5 5 5 5 5 5 5
6 6 6 6 5 5 5 5 5 5 5 4 4 4 4 4 4 4 4 4 4 4 4 4 4 4 4 4 4 4 4 4 4 4 5 5 5 5
5 5 5 5 5 5 5 5 4 4 4 4 4 4 4 4 4 4 4 4 4 4 4 4 4 4 4 4 4 4 4 4 4 4 4 4 5 4
5 5 5 5 5 5 5 4 4 4 4 4 4 4 4 4 4 4 4 4 4 4 4 3 3 3 3 4 4 4 4 4 4 4 4 4 4 4
5 5 5 5 5 5 4 4 4 4 4 4 4 4 4 3 3 3 3 3 3 3 3 3 3 3 3 3 3 3 3 3 3 4 4 4 4 4
5 5 5 5 4 4 4 4 4 4 4 3 3 3 3 3 3 3 3 3 3 3 3 3 3 3 3 3 3 3 3 3 3 3 3 3 3 3
4 4 4 4 4 4 4 4 4 3 3 3 3 3 3 3 3 3 3 3 3 3 3 3 3 3 3 3 2 3 3 3 3 3 3 3 3 3
4 4 4 4 4 4 4 3 3 3 3 3 3 3 3 3 3 3 3 3 3 2 2 3 3 2 2 2 2 3 3 3 3 3 3 2 2 2
4 4 4 4 3 3 3 3 3 3 3 3 3 3 3 3 3 2 2 2 2 2 2 2 2 2 2 2 2 2 2 2 2 2 2 2 2 2
Wind_Speed
1 2 1 1 0 0 1 2 2 1 2 3 2 2 2 1 1 1 1 2 2 1 2 2 2 3 3 4 4 4 5 5 6 6 6 7 6 6
1 2 1 1 1 1 1 0 1 2 2 2 2 2 2 2 3 2 1 2 2 1 1 1 2 2 2 3 4 4 4 5 5 5 6 6 6 6
1 1 1 1 1 1 1 1 0 1 1 2 2 2 2 2 2 3 3 2 1 1 1 1 1 2 2 3 4 4 4 5 5 5 5 6 6 6
0 0 1 1 1 0 1 0 0 1 2 2 2 2 2 2 2 2 3 3 2 1 0 1 1 1 2 3 3 4 4 4 5 5 5 5 6 6
2 1 1 1 0 0 0 0 1 0 1 1 2 2 1 1 2 2 3 2 3 2 1 1 2 2 2 2 3 3 3 4 4 5 5 5 6 6
2 2 2 2 2 2 1 1 1 0 0 1 1 1 1 2 0 1 2 2 2 3 2 2 2 3 3 3 3 2 2 2 3 3 4 4 5 5
2 2 3 2 2 2 1 2 1 1 1 1 1 1 1 1 2 1 2 3 3 2 2 2 2 2 3 4 4 3 3 3 3 3 3 3 4 5
2 2 2 1 2 3 3 3 2 2 2 2 2 3 3 3 2 1 1 1 2 2 1 3 1 2 4 4 5 4 4 4 3 3 3 4 4 4
3 2 2 2 2 2 3 3 3 3 4 3 3 5 4 4 3 2 2 2 3 3 1 3 2 3 4 5 5 5 4 4 4 4 4 4 4 4
3 3 3 3 3 2 1 1 2 3 4 3 5 6 6 5 5 4 4 2 2 2 1 2 3 3 4 5 5 4 4 4 4 5 5 4 3 3
3 3 3 4 4 2 1 2 3 4 4 5 5 5 5 4 4 2 1 1 2 3 1 1 2 3 3 3 4 4 4 5 5 6 5 4 3 3
2 3 5 4 4 3 2 2 3 4 3 3 3 3 2 3 4 4 4 3 2 3 2 1 2 1 2 2 2 3 3 5 6 5 4 3 2 2
3 3 4 5 5 4 3 3 5 3 2 2 2 1 2 2 3 3 4 4 4 4 3 2 1 1 2 3 3 3 3 3 4 4 4 4 3 2
4 4 4 5 5 4 4 4 3 1 1 1 1 2 2 3 3 3 4 4 5 5 5 4 2 3 2 2 3 3 3 4 3 2 3 4 4 4
4 6 5 4 4 4 5 4 2 1 1 2 3 4 4 4 3 2 2 2 3 3 3 4 3 3 3 3 3 3 3 3 3 2 2 2 3 2
3 4 4 4 3 3 3 2 2 2 2 3 3 3 2 2 2 2 2 1 1 3 3 3 4 4 3 4 4 4 3 3 3 3 2 2 3 3
2 1 1 1 1 2 2 2 1 1 2 2 2 2 2 2 2 2 2 2 2 3 3 2 3 3 4 4 4 5 4 4 4 3 2 2 3 3
2 2 2 3 3 3 3 3 2 3 3 3 2 2 3 3 3 2 1 2 3 3 3 3 2 2 2 3 5 5 4 4 3 3 3 3 4 3
2 3 3 4 4 4 4 3 4 4 3 3 3 3 3 3 2 2 2 3 3 4 3 3 2 2 3 5 4 4 4 3 3 3 3 3 4 4
3 4 4 4 3 3 4 3 3 3 3 3 3 3 3 2 2 2 3 3 3 3 3 2 3 3 5 5 4 4 5 5 4 4 3 2 3 4
4 4 4 4 4 4 4 3 4 4 4 3 3 4 3 3 3 3 3 4 3 2 3 4 5 5 3 1 2 4 4 5 5 4 3 2 2 2
4 4 4 4 4 4 3 3 3 3 4 4 4 4 3 3 3 4 3 3 3 3 4 3 2 1 1 3 4 4 4 3 3 4 4 5 3 4
5 4 4 4 4 4 3 4 4 4 4 3 3 4 3 3 3 3 3 3 2 3 2 2 2 1 2 3 3 3 4 3 1 1 3 4 6 7
Wind_Direction
69 63 68 39 66 108 136 154 160 224 287 287 308 318 344 351 350 37 29 18 26 58 53 50 45 36 32 23 17 13 10 7 9 13 15 17 13 17
85 76 58 40 45 54 108 138 158 173 231 266 271 295 325 356 349 349 343 347 5 23 6 13 30 23 31 27 21 14 13 13 11 12 14 9 9 17
45 71 28 57 70 35 61 84 98 143 205 287 299 312 334 331 337 357 347 344 338 348 347 8 17 28 37 24 18 16 15 14 15 14 13 9 10 13
276 45 318 23 53 18 69 105 203 182 173 261 304 315 305 294 307 318 336 318 296 301 298 315 325 357 7 12 10 15 16 12 11 9 8 5 4 4
203 200 227 176 285 298 326 276 249 238 168 196 280 288 288 304 328 327 326 314 302 286 266 284 294 308 320 328 344 360 5 5 7 4 359 353 351 351
216 211 212 203 213 221 241 242 220 169 175 191 280 283 281 285 319 317 316 310 305 310 295 283 272 281 288 297 309 316 321 334 344 345 344 347 347 344
236 235 226 221 233 234 243 226 204 197 203 245 279 279 283 269 257 263 286 300 295 290 290 293 294 288 286 280 284 290 296 304 311 319 327 331 333 334
225 256 259 258 269 282 267 248 224 210 217 225 256 243 246 241 244 253 272 312 296 290 262 277 278 269 282 275 279 282 288 296 292 293 305 309 315 320
209 224 255 276 294 271 280 288 269 244 223 215 231 234 230 226 213 230 236 242 259 274 275 273 277 267 280 279 278 276 281 285 284 286 292 296 300 300
218 210 219 249 257 256 252 282 272 264 252 241 230 232 227 214 204 211 223 262 291 292 252 263 270 276 286 287 276 274 280 282 286 293 291 280 279 290
239 230 222 233 254 262 223 249 272 282 283 273 257 249 245 232 199 165 188 230 279 281 267 247 272 289 288 277 283 279 281 287 293 290 277 270 274 288
251 249 244 244 251 242 204 220 250 266 278 303 302 296 276 239 219 194 194 210 242 268 246 222 266 302 293 278 284 294 297 291 290 276 267 262 269 288
237 248 254 256 250 242 233 229 250 259 250 270 270 273 278 256 241 224 212 206 216 244 241 206 242 258 244 274 291 283 280 294 295 279 266 252 255 236
231 240 251 255 249 250 249 258 264 272 232 277 284 266 256 256 249 243 239 234 229 235 232 212 220 224 243 271 275 285 291 288 277 250 262 264 257 252
235 249 251 246 244 254 261 257 242 208 211 249 257 256 253 251 251 251 258 261 267 258 237 229 223 224 219 240 256 261 278 282 277 241 230 228 221 217
244 251 253 247 245 259 271 261 235 220 218 232 250 263 264 256 246 235 241 249 278 289 283 253 229 210 233 245 242 256 252 255 265 255 248 251 237 230
218 228 262 265 257 275 279 272 260 260 247 239 240 262 269 258 257 238 227 243 243 260 277 289 282 250 229 229 247 251 248 262 255 229 221 256 259 239
174 200 223 227 233 239 247 264 256 246 245 238 236 237 247 250 255 259 241 234 242 253 257 263 283 317 317 288 232 238 242 249 253 224 200 223 259 255
191 219 227 229 238 241 242 245 246 247 245 237 234 235 242 249 245 244 242 239 247 254 258 254 245 228 263 278 278 240 229 250 247 229 223 218 245 259
218 225 233 235 240 245 246 248 249 247 244 242 240 237 235 237 245 243 237 238 244 255 263 256 243 233 235 250 264 275 251 231 228 230 240 246 260 281
232 238 238 236 240 243 245 245 242 235 234 237 241 241 235 232 243 245 238 245 246 245 252 261 264 267 257 242 272 284 279 256 235 219 212 220 257 271
232 236 242 243 240 240 241 245 249 245 237 238 241 241 237 229 233 236 234 234 239 244 257 275 297 305 254 241 258 273 288 302 302 273 234 218 211 226
233 233 234 235 237 236 236 238 245 249 245 242 242 237 231 229 230 228 234 236 241 247 258 280 301 289 257 243 256 269 283 295 313 325 285 266 251 254
Height
1521 1520 1520 1520 1520 1520 1520 1519 1519 1517 1517 1517 1517 1516 1515 1515 1514 1513 1512 1512 1511 1510 1510 1509 1508 1508 1507 1506 1505 1505 1504 1504 1503 1503 1503 1502 1502 1501
1519 1519 1519 1519 1518 1518 1518 1518 1517 1517 1516 1515 1515 1514 1513 1513 1512 1512 1511 1510 1509 1509 1508 1508 1507 1507 1506 1505 1504 1504 1503 1502 1502 1501 1501 1501 1500 1500
1518 1518 1517 1517 1517 1516 1516 1516 1515 1515 1514 1513 1513 1512 1511 1511 1510 1509 1509 1508 1507 1507 1507 1506 1506 1505 1505 1504 1503 1502 1501 1501 1500 1500 1499 1499 1499 1498
1516 1516 1516 1516 1515 1515 1514 1514 1513 1513 1512 1511 1510 1509 1509 1508 1508 1507 1507 1506 1506 1505 1505 1504 1504 1503 1503 1502 1501 1501 1500 1499 1498 1498 1497 1497 1497 1496
1514 1514 1514 1514 1513 1513 1512 1512 1511 1511 1510 1509 1507 1507 1506 1506 1505 1505 1504 1504 1504 1503 1503 1502 1502 1501 1501 1500 1500 1499 1498 1497 1497 1496 1495 1495 1495 1494
1513 1512 1512 1512 1511 1511 1510 1509 1509 1508 1507 1506 1505 1504 1504 1503 1503 1502 1501 1501 1501 1501 1501 1500 1500 1500 1499 1498 1498 1497 1496 1496 1495 1494 1493 1493 1492 1492
1510 1510 1510 1509 1509 1508 1508 1507 1506 1505 1504 1503 1502 1501 1500 1500 1500 1499 1499 1498 1499 1499 1498 1498 1497 1497 1497 1496 1495 1495 1494 1493 1493 1492 1491 1490 1490 1489
1507 1507 1507 1507 1506 1506 1505 1504 1504 1503 1501 1500 1500 1499 1498 1497 1497 1497 1496 1496 1495 1497 1496 1495 1495 1494 1494 1493 1493 1492 1492 1491 1490 1489 1488 1487 1487 1486
1504 1504 1504 1504 1503 1502 1502 1501 1500 1500 1499 1498 1497 1496 1495 1495 1494 1494 1494 1493 1493 1493 1493 1492 1492 1491 1491 1490 1490 1490 1489 1488 1487 1486 1485 1484 1483 1483
1502 1501 1501 1500 1500 1500 1499 1498 1497 1496 1495 1494 1494 1493 1493 1492 1492 1491 1491 1491 1490 1490 1490 1489 1488 1488 1488 1487 1487 1486 1486 1485 1484 1483 1482 1481 1481 1480
1499 1499 1498 1497 1497 1496 1495 1494 1493 1492 1492 1491 1490 1490 1490 1489 1489 1488 1487 1487 1486 1486 1486 1485 1485 1484 1484 1484 1484 1483 1482 1482 1481 1480 1479 1478 1478 1477
1495 1495 1495 1494 1494 1493 1492 1491 1489 1489 1488 1487 1487 1486 1486 1486 1485 1485 1484 1484 1483 1482 1483 1483 1482 1481 1480 1480 1480 1480 1479 1478 1477 1476 1476 1475 1475 1474
1491 1490 1490 1490 1489 1489 1488 1487 1486 1486 1485 1484 1483 1482 1482 1481 1481 1481 1480 1480 1480 1479 1480 1479 1478 1478 1478 1476 1476 1476 1475 1474 1473 1473 1472 1472 1472 1472
1487 1486 1486 1486 1485 1485 1484 1483 1483 1482 1481 1480 1479 1478 1478 1477 1477 1477 1477 1476 1476 1476 1476 1476 1475 1475 1474 1473 1472 1472 1471 1471 1470 1469 1469 1469 1469 1469
1483 1483 1482 1482 1481 1481 1480 1480 1479 1478 1477 1476 1475 1475 1474 1474 1473 1473 1473 1473 1472 1472 1472 1472 1472 1471 1471 1470 1469 1468 1467 1467 1466 1466 1466 1465 1465 1465
1478 1478 1478 1478 1477 1476 1476 1475 1474 1474 1473 1472 1472 1471 1471 1470 1470 1470 1469 1468 1468 1468 1468 1468 1467 1467 1466 1466 1465 1464 1464 1463 1462 1462 1462 1462 1462 1462
1474 1473 1473 1473 1472 1472 1471 1471 1470 1470 1469 1469 1468 1468 1467 1466 1466 1466 1466 1465 1464 1463 1463 1463 1463 1463 1463 1462 1461 1460 1460 1459 1459 1458 1458 1458 1459 1459
1470 1468 1468 1468 1468 1468 1467 1467 1466 1466 1465 1465 1464 1464 1463 1463 1463 1462 1462 1461 1461 1460 1459 1459 1459 1458 1458 1457 1457 1456 1455 1455 1455 1455 1455 1455 1454 1455
1465 1464 1464 1464 1464 1463 1463 1463 1462 1462 1461 1461 1460 1460 1460 1459 1459 1458 1458 1458 1457 1456 1456 1455 1455 1454 1453 1451 1451 1452 1451 1450 1450 1451 1451 1451 1451 1451
1460 1460 1460 1460 1460 1459 1459 1458 1458 1458 1457 1457 1456 1456 1456 1455 1455 1454 1454 1454 1453 1452 1451 1451 1450 1450 1449 1448 1447 1447 1447 1447 1446 1446 1447 1447 1448 1448
1456 1456 1455 1455 1455 1455 1455 1454 1454 1453 1453 1453 1452 1452 1452 1451 1451 1450 1450 1450 1449 1448 1447 1447 1446 1446 1446 1445 1444 1442 1442 1443 1443 1443 1443 1443 1443 1443
1451 1451 1451 1451 1451 1451 1450 1450 1450 1449 1449 1448 1448 1448 1448 1447 1447 1446 1446 1445 1445 1444 1444 1443 1443 1442 1442 1441 1440 1439 1438 1438 1438 1439 1440 1440 1440 1439
1447 1447 1447 1447 1447 1447 1446 1446 1446 1445 1445 1444 1444 1444 1443 1443 1443 1443 1442 1442 1441 1441 1440 1440 1439 1439 1438 1438 1437 1436 1435 1434 1433 1434 1435 1436 1437 1437